SP6RGZ-1 Weather Reports


time (UTC)temp
C
wind
direction
speed
KPH
gust
KPH
rain 1hr
cm
rain 24hr
cm
rain mn
cm
humidity
%
barometer
mb
20260504210002 18 0.0 0.0 0.00 0.00 0.00 61 992.2
20260504204502 18 0.0 0.0 0.00 0.00 0.00 64 992.2
20260504203002 20 0.0 0.0 0.00 0.00 0.00 60 992.2
20260504201502 20 0.0 0.0 0.00 0.00 0.00 59 992.2
20260504200002 20 0.0 0.0 0.00 0.00 0.00 57 992.1
20260504194502 20 0.0 0.0 0.00 0.00 0.00 55 992.1
20260504193002 21 0.0 0.0 0.00 0.00 0.00 55 992.2
20260504191502 21 0.0 0.0 0.00 0.00 0.00 54 992.1
20260504190002 21 0.0 0.0 0.00 0.00 0.00 52 992.0
20260504184502 21 0.0 0.0 0.00 0.00 0.00 50 991.8
20260504183002 22 0.0 0.0 0.00 0.00 0.00 47 991.8
20260504181502 23 0.0 0.0 0.00 0.00 0.00 45 991.7
20260504180002 23 0.0 0.0 0.00 0.00 0.00 42 991.6
20260504174502 24 0.0 0.0 0.00 0.00 0.00 41 991.5
20260504173002 25 0.0 0.0 0.00 0.00 0.00 40 991.6
20260504171502 25 0.0 0.0 0.00 0.00 0.00 39 991.6
20260504081502 26 0.0 0.0 0.00 0.00 0.00 36 994.7
20260504050002 15 0.0 0.0 0.00 0.00 0.00 51 994.5
20260504044502 15 0.0 0.0 0.00 0.00 0.00 51 994.3
20260504043002 15 0.0 0.0 0.00 0.00 0.00 51 994.4
20260504041502 14 0.0 0.0 0.00 0.00 0.00 53 994.6
20260504040002 13 0.0 0.0 0.00 0.00 0.00 54 994.2
20260504034502 13 0.0 0.0 0.00 0.00 0.00 57 994.1
20260504033002 12 0.0 0.0 0.00 0.00 0.00 59 994.1
20260504031502 11 0.0 0.0 0.00 0.00 0.00 60 994.0
20260504030002 12 0.0 0.0 0.00 0.00 0.00 60 993.8
20260504024502 12 0.0 0.0 0.00 0.00 0.00 60 993.8
20260504023002 12 0.0 0.0 0.00 0.00 0.00 61 993.8
20260504021502 12 0.0 0.0 0.00 0.00 0.00 61 993.8
20260504020002 12 0.0 0.0 0.00 0.00 0.00 61 993.7
20260504014503 12 0.0 0.0 0.00 0.00 0.00 60 993.7
20260504013003 12 0.0 0.0 0.00 0.00 0.00 61 993.6
20260504011502 12 0.0 0.0 0.00 0.00 0.00 62 993.7
20260504010002 12 0.0 0.0 0.00 0.00 0.00 62 993.8
20260504004502 12 0.0 0.0 0.00 0.00 0.00 63 993.9
20260504003002 12 0.0 0.0 0.00 0.00 0.00 63 993.8
20260504001502 12 0.0 0.0 0.00 0.00 0.00 63 994.0
20260504000002 13 0.0 0.0 0.00 0.00 0.00 63 993.8
20260503234502 13 0.0 0.0 0.00 0.00 0.00 63 994.0
20260503233002 13 0.0 0.0 0.00 0.00 0.00 62 994.1
20260503231502 13 0.0 0.0 0.00 0.00 0.00 63 994.2
20260503230003 13 0.0 0.0 0.00 0.00 0.00 62 994.3
20260503224502 13 0.0 0.0 0.00 0.00 0.00 61 994.3
20260503223002 14 0.0 0.0 0.00 0.00 0.00 60 994.3
20260503221502 15 0.0 0.0 0.00 0.00 0.00 58 994.5
20260503220002 15 0.0 0.0 0.00 0.00 0.00 57 994.5
20260503214502 15 0.0 0.0 0.00 0.00 0.00 55 994.5
20260503213002 15 0.0 0.0 0.00 0.00 0.00 55 994.5
20260503211502 15 0.0 0.0 0.00 0.00 0.00 55 994.5